| time (UTC) | temp F | wind direction | speed MPH | gust MPH | rain 1hr in | rain 24hr in | rain mn in | humidity % | barometer mb |
| 20260903044119 | 65 | 87 | 0.0 | 0.0 | 0.00 | 0.02 | 0.02 | 95 | 1046.9 |
| 20260903043114 | 65 | 106 | 2.0 | 2.0 | 0.07 | 0.02 | 0.02 | 95 | 1047.3 |
| 20260903042110 | 65 | 89 | 1.0 | 1.0 | 0.00 | 0.01 | 0.01 | 95 | 1046.9 |
| 20260903041107 | 65 | 75 | 2.0 | 2.0 | 0.05 | 0.01 | 0.01 | 95 | 1047.2 |
| 20260903040103 | 65 | 114 | 5.0 | 7.0 | 0.00 | 0.53 | 0.53 | 95 | 1046.6 |
| 20260903035100 | 65 | 95 | 1.0 | 3.0 | 0.07 | 0.53 | 0.53 | 95 | 1047.1 |
| 20260903034055 | 65 | 135 | 4.0 | 5.0 | 0.05 | 0.52 | 0.52 | 95 | 1047.6 |
| 20260903033051 | 65 | 91 | 1.0 | 2.0 | 0.00 | 0.51 | 0.51 | 95 | 1048.0 |
| 20260903032048 | 66 | 107 | 1.0 | 1.0 | 0.12 | 0.51 | 0.51 | 95 | 1047.9 |
| 20260903031049 | 66 | 97 | 0.0 | 0.0 | 0.66 | 0.49 | 0.49 | 95 | 1048.4 |
| 20260903030046 | 67 | 104 | 0.0 | 1.0 | 1.75 | 0.40 | 0.40 | 95 | 1049.8 |
| 20260903025043 | 68 | 177 | 2.0 | 3.0 | 0.35 | 0.11 | 0.11 | 95 | 1050.9 |
| 20260903024043 | 69 | 115 | 0.0 | 1.0 | 0.07 | 0.05 | 0.05 | 95 | 1047.6 |
| 20260903023040 | 69 | 75 | 2.0 | 2.0 | 0.05 | 0.04 | 0.04 | 95 | 1047.3 |
| 20260903022038 | 69 | 102 | 0.0 | 0.0 | 0.00 | 0.03 | 0.03 | 94 | 1046.4 |
| 20260903021033 | 69 | 90 | 0.0 | 1.0 | 0.00 | 0.03 | 0.03 | 94 | 1046.7 |
| 20260903020029 | 69 | 71 | 1.0 | 1.0 | 0.00 | 0.03 | 0.03 | 94 | 1046.8 |
| 20260903015026 | 70 | 88 | 1.0 | 1.0 | 0.00 | 0.03 | 0.03 | 94 | 1047.1 |
| 20260903014026 | 69 | 84 | 1.0 | 1.0 | 0.00 | 0.03 | 0.03 | 94 | 1047.5 |
| 20260903013026 | 70 | 101 | 1.0 | 1.0 | 0.00 | 0.03 | 0.03 | 94 | 1047.2 |
| 20260903012024 | 70 | 75 | 1.0 | 2.0 | 0.00 | 0.03 | 0.03 | 93 | 1047.3 |
| 20260903011019 | 70 | 66 | 2.0 | 3.0 | 0.00 | 0.03 | 0.03 | 93 | 1046.8 |
| 20260903010019 | 70 | 36 | 3.0 | 3.0 | 0.00 | 0.03 | 0.03 | 93 | 1046.6 |
| 20260903005015 | 70 | 93 | 5.0 | 7.0 | 0.00 | 0.03 | 0.03 | 93 | 1046.3 |
| 20260903004011 | 71 | 79 | 1.0 | 1.0 | 0.00 | 0.03 | 0.03 | 93 | 1046.3 |
| 20260903003007 | 71 | 92 | 2.0 | 2.0 | 0.00 | 0.03 | 0.03 | 92 | 1046.4 |
| 20260903002007 | 71 | 151 | 3.0 | 3.0 | 0.00 | 0.03 | 0.03 | 92 | 1046.2 |
| 20260903001001 | 71 | 113 | 0.0 | 1.0 | 0.00 | 0.03 | 0.03 | 92 | 1046.3 |
| 20260903000000 | 71 | 93 | 0.0 | 1.0 | 0.00 | 0.03 | 0.03 | 92 | 1046.3 |
| 20260902234956 | 71 | 85 | 1.0 | 2.0 | 0.00 | 0.03 | 0.03 | 92 | 1046.7 |
| 20260902233956 | 71 | 77 | 1.0 | 2.0 | 0.00 | 0.03 | 0.03 | 92 | 1046.4 |
| 20260902232956 | 72 | 93 | 1.0 | 2.0 | 0.00 | 0.03 | 0.03 | 91 | 1046.0 |
| 20260902231955 | 72 | 84 | 4.0 | 6.0 | 0.00 | 0.03 | 0.03 | 91 | 1045.9 |
| 20260902230952 | 72 | 102 | 2.0 | 3.0 | 0.00 | 0.03 | 0.03 | 91 | 1046.0 |
| 20260902225950 | 72 | 149 | 3.0 | 3.0 | 0.00 | 0.03 | 0.03 | 91 | 1045.8 |
| 20260902224951 | 73 | 73 | 1.0 | 2.0 | 0.00 | 0.03 | 0.03 | 91 | 1046.1 |
| 20260902223947 | 73 | 113 | 1.0 | 1.0 | 0.00 | 0.03 | 0.03 | 90 | 1046.1 |
| 20260902222948 | 73 | 55 | 2.0 | 2.0 | 0.00 | 0.03 | 0.03 | 90 | 1046.3 |
| 20260902221946 | 74 | 94 | 1.0 | 2.0 | 0.00 | 0.03 | 0.03 | 89 | 1046.2 |
| 20260902220941 | 74 | 50 | 2.0 | 3.0 | 0.00 | 0.03 | 0.03 | 88 | 1046.5 |
| 20260902215942 | 75 | 94 | 1.0 | 2.0 | 0.00 | 0.03 | 0.03 | 88 | 1046.5 |
| 20260902214939 | 75 | 319 | 2.0 | 2.0 | 0.00 | 0.03 | 0.03 | 87 | 1046.4 |
| 20260902213938 | 75 | 119 | 1.0 | 1.0 | 0.00 | 0.03 | 0.03 | 86 | 1046.4 |
| 20260902212933 | 74 | 101 | 1.0 | 2.0 | 0.00 | 0.03 | 0.03 | 87 | 1046.5 |
| 20260902211931 | 75 | 89 | 2.0 | 2.0 | 0.00 | 0.03 | 0.03 | 87 | 1046.6 |
| 20260902210928 | 75 | 48 | 3.0 | 3.0 | 0.00 | 0.03 | 0.03 | 88 | 1046.7 |
| 20260902205926 | 76 | 94 | 3.0 | 5.0 | 0.00 | 0.03 | 0.03 | 86 | 1046.6 |
| 20260902204923 | 75 | 108 | 1.0 | 2.0 | 0.00 | 0.03 | 0.03 | 88 | 1046.5 |
| 20260902203918 | 75 | 100 | 0.0 | 1.0 | 0.00 | 0.03 | 0.03 | 88 | 1046.5 |
| 20260902202918 | 75 | 69 | 3.0 | 3.0 | 0.00 | 0.03 | 0.03 | 87 | 1046.3 |
| 20260902201916 | 75 | 100 | 0.0 | 1.0 | 0.00 | 0.03 | 0.03 | 88 | 1046.6 |
| 20260902200916 | 75 | 90 | 0.0 | 1.0 | 0.00 | 0.03 | 0.03 | 88 | 1046.8 |
| 20260902195913 | 76 | 98 | 3.0 | 3.0 | 0.00 | 0.03 | 0.03 | 88 | 1046.8 |
| 20260902194908 | 75 | 141 | 2.0 | 2.0 | 0.00 | 0.03 | 0.03 | 88 | 1047.1 |
| 20260902193909 | 74 | 91 | 1.0 | 1.0 | 0.00 | 0.03 | 0.03 | 90 | 1046.9 |
| 20260902192903 | 74 | 97 | 1.0 | 1.0 | 0.00 | 0.03 | 0.03 | 89 | 1047.0 |
| 20260902191902 | 74 | 86 | 2.0 | 3.0 | 0.00 | 0.03 | 0.03 | 88 | 1047.1 |
| 20260902190858 | 74 | 87 | 3.0 | 6.0 | 0.00 | 0.03 | 0.03 | 88 | 1047.2 |
| 20260902185854 | 74 | 123 | 2.0 | 2.0 | 0.00 | 0.03 | 0.03 | 90 | 1047.9 |
| 20260902184851 | 74 | 86 | 1.0 | 1.0 | 0.00 | 0.03 | 0.03 | 88 | 1047.3 |
| 20260902183847 | 74 | 131 | 5.0 | 7.0 | 0.00 | 0.03 | 0.03 | 89 | 1047.1 |
| 20260902182845 | 73 | 56 | 3.0 | 3.0 | 0.00 | 0.03 | 0.03 | 90 | 1047.2 |
| 20260902181843 | 73 | 106 | 4.0 | 7.0 | 0.00 | 0.03 | 0.03 | 90 | 1047.2 |
| 20260902180838 | 71 | 91 | 2.0 | 2.0 | 0.00 | 0.03 | 0.03 | 92 | 1047.5 |
| 20260902175835 | 70 | 101 | 1.0 | 1.0 | 0.00 | 0.03 | 0.03 | 93 | 1048.0 |
| 20260902174831 | 70 | 84 | 1.0 | 1.0 | 0.00 | 0.03 | 0.03 | 95 | 1048.0 |
| 20260902173830 | 69 | 73 | 3.0 | 5.0 | 0.00 | 0.03 | 0.03 | 95 | 1048.5 |
| 20260902172830 | 69 | 82 | 0.0 | 0.0 | 0.00 | 0.03 | 0.03 | 95 | 1048.3 |
| 20260902171825 | 69 | 87 | 0.0 | 1.0 | 0.00 | 0.03 | 0.03 | 95 | 1048.7 |
| 20260902170823 | 69 | 76 | 0.0 | 0.0 | 0.00 | 0.03 | 0.03 | 95 | 1048.4 |
| 20260902165819 | 69 | 74 | 0.0 | 0.0 | 0.00 | 0.03 | 0.03 | 95 | 1048.7 |
| 20260902164819 | 69 | 74 | 0.0 | 1.0 | 0.00 | 0.03 | 0.03 | 95 | 1048.5 |
| 20260902163820 | 69 | 101 | 1.0 | 1.0 | 0.00 | 0.03 | 0.03 | 95 | 1048.3 |
| 20260902162818 | 69 | 86 | 2.0 | 2.0 | 0.00 | 0.03 | 0.03 | 95 | 1048.3 |
| 20260902161813 | 69 | 85 | 0.0 | 0.0 | 0.00 | 0.03 | 0.03 | 95 | 1048.6 |
| 20260902160811 | 69 | 80 | 1.0 | 2.0 | 0.00 | 0.03 | 0.03 | 95 | 1048.3 |
| 20260902155809 | 69 | 82 | 0.0 | 0.0 | 0.00 | 0.03 | 0.03 | 95 | 1048.4 |
| 20260902154809 | 69 | 84 | 0.0 | 0.0 | 0.07 | 0.03 | 0.03 | 95 | 1048.4 |
| 20260902153809 | 69 | 80 | 1.0 | 1.0 | 0.12 | 0.03 | 0.03 | 95 | 1048.2 |
| 20260902152806 | 70 | 90 | 0.0 | 0.0 | 0.07 | 0.01 | 0.01 | 95 | 1048.4 |
| 20260902151802 | 70 | 80 | 1.0 | 1.0 | 0.00 | 0.00 | 0.00 | 94 | 1048.3 |
| 20260902150757 | 70 | 60 | 1.0 | 2.0 | 0.00 | 0.00 | 0.00 | 95 | 1048.4 |
| 20260902145753 | 70 | 85 | 1.0 | 1.0 | 0.00 | 0.00 | 0.00 | 95 | 1048.5 |
| 20260902144749 | 70 | 92 | 0.0 | 0.0 | 0.00 | 0.00 | 0.00 | 95 | 1048.4 |
| 20260902143746 | 70 | 80 | 0.0 | 1.0 | 0.00 | 0.00 | 0.00 | 95 | 1048.4 |
| 20260902142742 | 69 | 88 | 0.0 | 0.0 | 0.00 | 0.00 | 0.00 | 95 | 1048.4 |
| 20260902141738 | 69 | 85 | 1.0 | 1.0 | 0.00 | 0.00 | 0.00 | 95 | 1048.6 |
| 20260902140734 | 70 | 85 | 1.0 | 1.0 | 0.00 | 0.00 | 0.00 | 95 | 1048.5 |
| 20260902135734 | 70 | 94 | 1.0 | 1.0 | 0.00 | 0.00 | 0.00 | 95 | 1048.5 |
| 20260902134730 | 70 | 89 | 0.0 | 1.0 | 0.00 | 0.00 | 0.00 | 95 | 1048.2 |
| 20260902133726 | 70 | 103 | 0.0 | 0.0 | 0.00 | 0.00 | 0.00 | 95 | 1048.4 |
| 20260902132727 | 69 | 103 | 0.0 | 0.0 | 0.00 | 0.00 | 0.00 | 95 | 1048.3 |
| 20260902131723 | 69 | 96 | 0.0 | 0.0 | 0.00 | 0.00 | 0.00 | 95 | 1048.1 |
| 20260902130720 | 69 | 87 | 0.0 | 0.0 | 0.00 | 0.00 | 0.00 | 95 | 1048.3 |
| 20260902125716 | 69 | 104 | 0.0 | 0.0 | 0.00 | 0.00 | 0.00 | 95 | 1047.7 |
| 20260902124715 | 68 | 101 | 0.0 | 0.0 | 0.00 | 0.00 | 0.00 | 95 | 1047.9 |
| 20260902123710 | 68 | 102 | 0.0 | 0.0 | 0.00 | 0.00 | 0.00 | 95 | 1047.7 |
| 20260902122705 | 68 | 100 | 0.0 | 0.0 | 0.00 | 0.00 | 0.00 | 95 | 1047.5 |
| 20260902121701 | 67 | 99 | 0.0 | 0.0 | 0.00 | 0.00 | 0.00 | 95 | 1047.1 |
| 20260902120658 | 67 | 99 | 0.0 | 0.0 | 0.00 | 0.00 | 0.00 | 95 | 1047.1 |
| 20260902115654 | 67 | 95 | 0.0 | 0.0 | 0.00 | 0.00 | 0.00 | 95 | 1047.3 |
| 20260902114652 | 67 | 97 | 0.0 | 0.0 | 0.00 | 0.00 | 0.00 | 95 | 1047.2 |
| 20260902113648 | 67 | 97 | 0.0 | 0.0 | 0.00 | 0.00 | 0.00 | 95 | 1047.4 |
| 20260902112643 | 66 | 97 | 0.0 | 0.0 | 0.00 | 0.00 | 0.00 | 95 | 1047.5 |
| 20260902111641 | 66 | 98 | 0.0 | 0.0 | 0.00 | 0.00 | 0.00 | 95 | 1047.5 |
| 20260902110639 | 66 | 97 | 0.0 | 0.0 | 0.00 | 0.00 | 0.00 | 95 | 1047.5 |
| 20260902105634 | 66 | 97 | 0.0 | 0.0 | 0.00 | 0.00 | 0.00 | 95 | 1047.6 |
| 20260902104630 | 66 | 97 | 0.0 | 0.0 | 0.00 | 0.00 | 0.00 | 95 | 1047.6 |
| 20260902103631 | 66 | 101 | 0.0 | 0.0 | 0.00 | 0.00 | 0.00 | 95 | 1047.6 |
| 20260902102628 | 66 | 96 | 0.0 | 0.0 | 0.00 | 0.00 | 0.00 | 95 | 1047.5 |
| 20260902101627 | 66 | 107 | 0.0 | 0.0 | 0.00 | 0.00 | 0.00 | 95 | 1047.6 |
| 20260902100626 | 66 | 104 | 0.0 | 0.0 | 0.00 | 0.00 | 0.00 | 95 | 1047.4 |
| 20260902095626 | 66 | 104 | 0.0 | 0.0 | 0.00 | 0.00 | 0.00 | 95 | 1047.4 |
| 20260902094621 | 66 | 104 | 0.0 | 0.0 | 0.00 | 0.00 | 0.00 | 95 | 1047.1 |
| 20260902093617 | 66 | 106 | 0.0 | 0.0 | 0.00 | 0.00 | 0.00 | 95 | 1047.2 |
| 20260902092612 | 66 | 106 | 0.0 | 0.0 | 0.00 | 0.00 | 0.00 | 95 | 1047.3 |
| 20260902091608 | 66 | 106 | 0.0 | 0.0 | 0.00 | 0.00 | 0.00 | 95 | 1047.3 |
| 20260902090607 | 66 | 106 | 0.0 | 0.0 | 0.00 | 0.00 | 0.00 | 95 | 1047.0 |
| 20260902085605 | 66 | 106 | 0.0 | 0.0 | 0.00 | 0.00 | 0.00 | 95 | 1047.1 |
| 20260902084603 | 66 | 105 | 0.0 | 0.0 | 0.00 | 0.00 | 0.00 | 95 | 1047.0 |
| 20260902083559 | 66 | 110 | 0.0 | 0.0 | 0.00 | 0.00 | 0.00 | 95 | 1047.0 |
| 20260902082555 | 66 | 110 | 0.0 | 0.0 | 0.00 | 0.00 | 0.00 | 95 | 1046.9 |
| 20260902081553 | 66 | 110 | 0.0 | 0.0 | 0.00 | 0.00 | 0.00 | 95 | 1047.0 |
| 20260902080548 | 66 | 110 | 0.0 | 0.0 | 0.00 | 0.00 | 0.00 | 95 | 1046.9 |
| 20260902075544 | 66 | 110 | 0.0 | 0.0 | 0.00 | 0.00 | 0.00 | 95 | 1046.6 |
| 20260902074541 | 66 | 111 | 0.0 | 0.0 | 0.00 | 0.00 | 0.00 | 95 | 1046.7 |
| 20260902073537 | 66 | 112 | 1.0 | 1.0 | 0.00 | 0.00 | 0.00 | 95 | 1046.7 |
| 20260902072535 | 67 | 106 | 0.0 | 0.0 | 0.00 | 0.00 | 0.00 | 95 | 1046.7 |
| 20260902071531 | 67 | 103 | 0.0 | 0.0 | 0.00 | 0.00 | 0.00 | 95 | 1046.5 |
| 20260902070528 | 67 | 98 | 0.0 | 0.0 | 0.00 | 0.00 | 0.00 | 95 | 1046.7 |
| 20260902065528 | 67 | 98 | 0.0 | 0.0 | 0.00 | 0.00 | 0.00 | 95 | 1046.6 |
| 20260902064526 | 67 | 111 | 0.0 | 0.0 | 0.00 | 0.00 | 0.00 | 95 | 1046.8 |
| 20260902063520 | 67 | 97 | 0.0 | 0.0 | 0.00 | 0.00 | 0.00 | 95 | 1046.9 |
| 20260902062520 | 67 | 91 | 0.0 | 0.0 | 0.00 | 0.00 | 0.00 | 95 | 1047.1 |
| 20260902061516 | 67 | 90 | 0.0 | 0.0 | 0.00 | 0.00 | 0.00 | 95 | 1047.1 |
| 20260902060514 | 67 | 94 | 0.0 | 0.0 | 0.00 | 0.00 | 0.00 | 95 | 1046.9 |
| 20260902055512 | 67 | 94 | 0.0 | 1.0 | 0.00 | 0.00 | 0.00 | 95 | 1046.9 |
| 20260902054507 | 67 | 94 | 0.0 | 1.0 | 0.00 | 0.00 | 0.00 | 95 | 1046.9 |
| 20260902053503 | 67 | 95 | 0.0 | 0.0 | 0.00 | 0.00 | 0.00 | 95 | 1047.0 |
| 20260902052503 | 67 | 107 | 0.0 | 0.0 | 0.00 | 0.00 | 0.00 | 95 | 1046.9 |
| 20260902051459 | 67 | 108 | 0.0 | 0.0 | 0.00 | 0.00 | 0.00 | 95 | 1047.0 |
| 20260902050458 | 67 | 108 | 0.0 | 0.0 | 0.00 | 0.00 | 0.00 | 95 | 1046.6 |
| 20260902045455 | 67 | 120 | 2.0 | 2.0 | 0.00 | 0.00 | 0.00 | 95 | 1046.5 |
| 20260902044451 | 67 | 88 | 0.0 | 1.0 | 0.00 | 0.00 | 0.00 | 95 | 1046.7 |